Regional Weather Roundup
Issued by NWS

Home | Current Version | Previous Version | Text Only | Print | Product List | Glossary On
Versions: 1 2 3 4 5 6 7 8 9 10 11 12 13 14 15 16 17 18 19 20 21 22 23 24 25 26 27 28 29 30 31 32 33 34 35 36 37 38 39 40 41 42 43 44 45 46 47 48 49 50
000
ASUS43 KLMK 190002
RWRKY
KENTUCKY REGIONAL WEATHER ROUNDUP
NATIONAL WEATHER SERVICE LOUISVILLE KY
800 PM EDT FRI AUG 18 2017

NOTE "FAIR" INDICATES FEW OR NO CLOUDS BELOW 12,000 FEET
WITH NO SIGNIFICANT WEATHER AND/OR OBSTRUCTIONS TO VISIBILITY.

KYZ001>023-026-027-061>063-070>075-190100-
WESTERN AND SOUTH CENTRAL KENTUCKY

CITY           SKY/WX    TMP DP  RH WIND       PRES   REMARKS
PADUCAH        CLEAR     82  66  58 SW3       29.93F
HENDERSON      CLEAR     81  68  64 CALM      29.94F
OWENSBORO      CLEAR     82  68  62 SW3       29.94F
HOPKINSVILLE   CLEAR     83  65  55 SW7       29.96S
BOWLING GREEN  CLEAR     83  64  52 W3        29.96S
GLASGOW        CLEAR     80  66  62 CALM      29.96F
$$

KYZ024-025-028>034-038-045-046-053-190100-
NORTH CENTRAL KENTUCKY

CITY           SKY/WX    TMP DP  RH WIND       PRES   REMARKS
LOUISVILLE/SDF PTCLDY    83  63  50 W9        29.93R
LOUISVILLE/LOU CLEAR     82  65  56 W8        29.93R
FORT KNOX      CLEAR     80  65  61 W5        29.94R
$$

KYZ035>037-039>044-047>052-055>060-089>105-190100-
NORTHEAST KENTUCKY

CITY           SKY/WX    TMP DP  RH WIND       PRES   REMARKS
LEXINGTON      CLEAR     79  63  57 SW6       29.95S
COVINGTON      PTCLDY    79  65  62 W6        29.92R
FRANKFORT      CLEAR     81  63  54 W3        29.93R
$$

KYZ054-064>069-076>088-106>120-190100-
SOUTHEAST KENTUCKY

CITY           SKY/WX    TMP DP  RH WIND       PRES   REMARKS
JACKSON        CLEAR     77  64  64 W5        29.97R
LONDON         CLEAR     79  63  57 W7        29.99R
SOMERSET       NOT AVBL
MIDDLESBORO    CLEAR     76  67  72 W3        29.99R
MONTICELLO     CLEAR     77  70  79 W3        30.00R
$$





USA.gov is the U.S. government's official web portal to all federal, state and local government web resources and services.